GW2693 Weather Reports


time (UTC)temp
C
wind
direction
speed
KPH
gust
KPH
rain 1hr
cm
rain 24hr
cm
rain mn
cm
humidity
%
barometer
mb
20260506185328 28 30 0.0 0.0 0.00 0.00 0.00 78 1007.3
20260506184825 27 129 9.7 11.3 0.00 0.00 0.00 79 1007.1
20260506184323 27 74 6.4 9.7 0.00 0.00 0.00 80 1007.1
20260506183820 27 47 6.4 6.4 0.00 0.00 0.00 81 1007.4
20260506183315 27 151 4.8 6.4 0.00 0.00 0.00 81 1007.3
20260506182813 26 34 6.4 6.4 0.00 0.00 0.00 81 1007.3
20260506182310 26 94 6.4 9.7 0.00 0.00 0.00 81 1007.4
20260506181807 25 91 8.0 9.7 0.00 0.00 0.00 82 1007.5
20260506181305 23 20 8.0 11.3 0.00 0.00 0.00 84 1007.7
20260506180802 23 52 6.4 9.7 0.00 0.00 0.00 85 1007.7
20260506180257 23 337 3.2 4.8 0.00 0.00 0.00 85 1007.9
20260506175754 23 76 6.4 12.9 0.00 0.00 0.00 83 1007.9
20260506175251 23 352 3.2 4.8 0.00 0.00 0.00 84 1007.9
20260506174748 23 4 8.0 9.7 0.00 0.00 0.00 87 1007.8
20260506174245 23 335 8.0 12.9 0.00 0.00 0.00 86 1007.9
20260506173743 23 358 9.7 16.1 0.00 0.00 0.00 85 1008.0
20260506173240 25 53 12.9 16.1 0.00 0.00 0.00 80 1007.7
20260506172737 27 74 6.4 9.7 0.00 0.00 0.00 84 1007.9
20260506172233 27 40 6.4 6.4 0.00 0.00 0.00 85 1008.1
20260506171731 27 96 4.8 6.4 0.00 0.00 0.00 85 1008.1
20260506171228 27 25 4.8 4.8 0.00 0.00 0.00 87 1008.1
20260506170726 27 105 3.2 3.2 0.00 0.00 0.00 87 1008.0
20260506170222 27 103 3.2 3.2 0.00 0.00 0.00 87 1008.0
20260506165720 27 60 3.2 4.8 0.00 0.00 0.00 87 1008.0
20260506165217 27 108 11.3 12.9 0.00 0.00 0.00 87 1008.2
20260506164714 26 84 1.6 3.2 0.00 0.00 0.00 90 1008.3
20260506164211 26 56 0.0 0.0 0.00 0.00 0.00 93 1008.3
20260506163708 25 50 0.0 0.0 0.00 0.00 0.00 93 1008.7
20260506163203 25 48 3.2 3.2 0.00 0.00 0.00 94 1008.6
20260506162659 25 53 3.2 4.8 0.00 0.00 0.00 94 1008.9
20260506162157 25 43 6.4 6.4 0.00 0.00 0.00 94 1008.9
20260506161654 25 47 3.2 3.2 0.00 0.00 0.00 94 1008.9
20260506161150 25 64 0.0 1.6 0.00 0.00 0.00 94 1008.6
20260506160648 25 71 0.0 0.0 0.00 0.00 0.00 94 1008.8
20260506160145 25 17 6.4 6.4 0.00 0.00 0.00 94 1008.5
20260506155643 25 47 3.2 3.2 0.00 0.00 0.00 94 1008.4
20260506155140 25 58 3.2 4.8 0.00 0.00 0.00 93 1008.1
20260506153242 25 114 0.0 0.0 0.00 0.00 0.00 94 1007.5
20260506152739 25 46 0.0 0.0 0.00 0.00 0.00 94 1007.5
20260506152237 25 129 1.6 1.6 0.00 0.00 0.00 94 1007.3
20260506151735 25 60 0.0 1.6 0.00 0.00 0.00 96 1007.2
20260506151232 25 89 0.0 1.6 0.00 0.00 0.00 97 1007.5
20260506150728 25 114 0.0 0.0 0.00 0.00 0.00 97 1007.2
20260506150226 24 90 0.0 0.0 0.00 0.00 0.00 98 1007.4
20260506145722 24 59 0.0 0.0 0.00 0.00 0.00 98 1007.6
20260506145219 24 102 0.0 0.0 0.00 0.00 0.00 98 1007.2
20260506144716 24 68 0.0 0.0 0.00 0.00 0.00 98 1007.4
20260506144213 23 85 0.0 0.0 0.00 0.00 0.00 98 1007.5
20260506143711 23 94 0.0 0.0 0.00 0.00 0.00 99 1007.5
20260506143208 23 71 0.0 0.0 0.00 0.00 0.00 99 1007.3
20260506142707 23 129 0.0 0.0 0.00 0.00 0.00 99 1007.1
20260506142204 23 82 0.0 0.0 0.00 0.00 0.00 99 1006.9
20260506141702 23 88 0.0 0.0 0.00 0.00 0.00 99 1007.0
20260506141200 23 118 1.6 3.2 0.00 0.00 0.00 99 1006.7
20260506140657 23 96 0.0 0.0 0.00 0.00 0.00 99 1006.8
20260506140154 23 111 1.6 1.6 0.00 0.00 0.00 99 1006.5
20260506135651 23 141 0.0 0.0 0.00 0.00 0.00 99 1006.2
20260506135147 23 106 0.0 0.0 0.00 0.00 0.00 99 1006.3
20260506134644 23 94 0.0 0.0 0.00 0.00 0.00 99 1006.3
20260506134140 23 98 0.0 0.0 0.00 0.00 0.00 99 1006.4
20260506133637 23 85 0.0 0.0 0.00 0.00 0.00 99 1006.2
20260506133134 23 86 0.0 0.0 0.00 0.00 0.00 99 1006.5
20260506132632 23 100 0.0 0.0 0.00 0.00 0.00 99 1006.2
20260506132128 23 77 0.0 0.0 0.00 0.00 0.00 99 1006.4
20260506131626 23 100 0.0 0.0 0.00 0.00 0.00 99 1006.2
20260506131122 23 54 0.0 0.0 0.00 0.00 0.00 99 1006.5
20260506130619 23 98 0.0 0.0 0.00 0.00 0.00 99 1006.4
20260506130116 23 71 0.0 0.0 0.00 0.00 0.00 99 1006.6
20260506125615 23 76 0.0 0.0 0.00 0.00 0.00 99 1006.6
20260506125112 23 70 0.0 0.0 0.00 0.00 0.00 99 1006.6
20260506124609 23 79 0.0 0.0 0.00 0.00 0.00 99 1006.4
20260506124107 23 78 0.0 0.0 0.00 0.00 0.00 99 1006.3
20260506123604 23 77 0.0 0.0 0.00 0.00 0.00 99 1006.3
20260506123103 23 77 0.0 0.0 0.00 0.00 0.00 99 1006.5
20260506122559 23 73 0.0 0.0 0.00 0.00 0.00 99 1006.3
20260506122057 22 96 0.0 0.0 0.00 0.00 0.00 99 1006.2
20260506121555 22 136 0.0 0.0 0.00 0.00 0.00 99 1006.2
20260506121051 22 111 0.0 0.0 0.00 0.00 0.00 99 1006.2
20260506120549 22 107 0.0 0.0 0.00 0.00 0.00 99 1006.2
20260506120046 22 105 0.0 0.0 0.00 0.00 0.00 99 1006.3
20260506115544 22 98 0.0 0.0 0.00 0.00 0.00 99 1006.3
20260506115042 22 101 0.0 0.0 0.00 0.00 0.00 99 1006.2
20260506114539 22 98 0.0 0.0 0.00 0.00 0.00 99 1006.2
20260506114037 22 99 0.0 0.0 0.00 0.00 0.00 99 1006.1
20260506113535 22 149 0.0 0.0 0.00 0.00 0.00 99 1006.1
20260506113032 22 125 0.0 0.0 0.00 0.00 0.00 99 1006.0
20260506112528 22 142 0.0 0.0 0.00 0.00 0.00 99 1006.0
20260506112026 22 113 0.0 0.0 0.00 0.00 0.00 99 1006.1
20260506111524 22 164 0.0 0.0 0.00 0.00 0.00 99 1006.1
20260506111021 22 115 0.0 0.0 0.00 0.00 0.00 99 1006.0
20260506110518 22 121 0.0 0.0 0.00 0.00 0.00 99 1005.9
20260506110015 22 118 0.0 0.0 0.00 0.00 0.00 99 1005.8
20260506105511 22 110 0.0 0.0 0.00 0.00 0.00 99 1005.8
20260506105009 22 139 0.0 0.0 0.00 0.00 0.00 99 1005.8
20260506104507 22 109 0.0 0.0 0.00 0.00 0.00 99 1005.8
20260506104005 22 123 0.0 0.0 0.00 0.00 0.00 99 1005.8
20260506103501 22 120 0.0 0.0 0.00 0.00 0.00 99 1005.8
20260506102958 22 182 0.0 0.0 0.00 0.00 0.00 99 1005.7
20260506102456 22 108 0.0 0.0 0.00 0.00 0.00 99 1006.0
20260506101953 22 251 0.0 0.0 0.00 0.00 0.00 99 1005.8
20260506101450 22 188 0.0 0.0 0.00 0.00 0.00 99 1005.6
20260506100947 22 201 0.0 0.0 0.00 0.00 0.00 99 1005.7
20260506100446 22 172 0.0 0.0 0.00 0.00 0.00 99 1005.0
20260506095943 22 220 0.0 0.0 0.00 0.00 0.00 99 1005.1
20260506095442 22 197 1.6 3.2 0.00 0.00 0.00 99 1004.9
20260506094937 22 198 3.2 4.8 0.00 0.00 0.00 99 1005.1
20260506094436 22 139 3.2 3.2 0.00 0.00 0.00 99 1004.9
20260506093933 23 218 4.8 6.4 0.00 0.00 0.00 99 1004.9
20260506093431 23 144 0.0 0.0 0.00 0.00 0.00 99 1004.9
20260506092928 23 187 3.2 4.8 0.00 0.00 0.00 99 1004.9
20260506092426 23 170 0.0 0.0 0.00 0.00 0.00 99 1005.0
20260506091922 23 110 4.8 6.4 0.00 0.00 0.00 99 1005.2
20260506091421 23 226 4.8 4.8 0.00 0.00 0.00 99 1005.0
20260506090918 23 195 3.2 4.8 0.00 0.00 0.00 99 1005.6
20260506090415 23 185 1.6 3.2 0.00 0.00 0.00 99 1005.0
20260506085912 23 150 0.0 1.6 0.00 0.00 0.00 99 1005.3
20260506085409 23 211 3.2 6.4 0.00 0.00 0.00 99 1005.4
20260506084905 23 210 0.0 3.2 0.00 0.00 0.00 99 1005.3
20260506084402 23 187 1.6 3.2 0.00 0.00 0.00 99 1005.2
20260506083858 23 220 3.2 3.2 0.00 0.00 0.00 99 1005.4
20260506083356 23 227 3.2 4.8 0.00 0.00 0.00 99 1004.9
20260506082853 23 208 3.2 3.2 0.00 0.00 0.00 99 1004.9
20260506082349 23 203 3.2 4.8 0.00 0.00 0.00 99 1005.2
20260506081845 23 203 6.4 6.4 0.00 0.00 0.00 99 1005.1
20260506081343 23 160 3.2 4.8 0.00 0.00 0.00 99 1005.0
20260506080835 23 193 3.2 4.8 0.00 0.00 0.00 99 1005.1
20260506080331 23 189 4.8 4.8 0.00 0.00 0.00 99 1005.2
20260506073316 23 202 1.6 3.2 0.00 0.00 0.00 99 1005.6
20260506072812 23 221 1.6 3.2 0.00 0.00 0.00 99 1005.4
20260506072310 23 208 3.2 4.8 0.00 0.00 0.00 99 1005.4
20260506071808 23 193 1.6 3.2 0.00 0.00 0.00 99 1005.6
20260506071306 23 175 4.8 6.4 0.00 0.00 0.00 99 1005.8
20260506070802 23 199 9.7 11.3 0.00 0.00 0.00 99 1005.8
20260506070259 23 208 3.2 4.8 0.00 0.00 0.00 99 1005.8
20260506062236 23 208 3.2 3.2 0.00 0.00 0.00 99 1005.9
20260506061732 23 155 3.2 3.2 0.00 0.00 0.00 99 1006.0
20260506061230 23 207 6.4 9.7 0.00 0.00 0.00 99 1006.0
20260506060728 23 167 0.0 1.6 0.00 0.00 0.00 99 1006.0
20260506060225 23 178 3.2 4.8 0.00 0.00 0.00 99 1006.0
20260506051157 23 150 3.2 3.2 0.00 0.00 0.00 98 1005.9
20260506050655 23 176 3.2 3.2 0.00 0.00 0.00 98 1006.0
20260506050152 23 150 3.2 3.2 0.00 0.00 0.00 98 1005.8
20260506044643 23 185 3.2 4.8 0.00 0.00 0.00 97 1005.9
20260506044140 23 223 4.8 9.7 0.00 0.00 0.00 97 1006.0
20260506043637 23 191 3.2 3.2 0.00 0.00 0.00 97 1005.7
20260506043135 23 183 3.2 4.8 0.00 0.00 0.00 97 1005.9
20260506042634 23 157 3.2 4.8 0.00 0.00 0.00 97 1005.8
20260506042131 23 179 3.2 4.8 0.00 0.00 0.00 97 1006.0
20260506041630 23 199 3.2 3.2 0.00 0.00 0.00 96 1005.9
20260506041126 23 152 4.8 6.4 0.00 0.00 0.00 96 1005.8
20260506040624 23 153 3.2 4.8 0.00 0.00 0.00 96 1005.8
20260506040120 23 177 8.0 11.3 0.00 0.00 0.00 96 1005.6
20260506035617 23 157 3.2 3.2 0.00 0.00 0.00 96 1005.4
20260506035114 23 203 6.4 11.3 0.00 0.00 0.00 96 1005.3
20260506034611 23 198 3.2 3.2 0.00 0.00 0.00 96 1005.4
20260506034108 23 182 6.4 9.7 0.00 0.00 0.00 96 1005.0
20260506033605 24 180 4.8 6.4 0.00 0.00 0.00 95 1005.1
20260506033102 24 167 3.2 3.2 0.00 0.00 0.00 95 1005.1
20260506032600 24 161 9.7 12.9 0.00 0.00 0.00 95 1005.0
20260506032056 24 206 6.4 9.7 0.00 0.00 0.00 95 1004.8
20260506031554 24 213 8.0 12.9 0.00 0.00 0.00 94 1005.0
20260506031050 24 201 6.4 6.4 0.00 0.00 0.00 94 1004.8
20260506030549 24 199 4.8 4.8 0.00 0.00 0.00 94 1004.7
20260506030046 24 186 4.8 9.7 0.00 0.00 0.00 93 1004.6
20260506025542 24 207 9.7 12.9 0.00 0.00 0.00 93 1004.5
20260506025038 25 202 6.4 6.4 0.00 0.00 0.00 93 1004.7
20260506024535 25 213 4.8 6.4 0.00 0.00 0.00 92 1004.5
20260506024031 25 160 6.4 9.7 0.00 0.00 0.00 92 1004.6
20260506023522 25 218 6.4 11.3 0.00 0.00 0.00 92 1004.5
20260506023020 25 164 8.0 11.3 0.00 0.00 0.00 91 1004.6
20260506022517 25 164 4.8 6.4 0.00 0.00 0.00 91 1004.6
20260506022015 25 112 4.8 6.4 0.00 0.00 0.00 91 1004.4
20260506021512 25 234 3.2 4.8 0.00 0.00 0.00 91 1004.5
20260506021009 25 219 8.0 12.9 0.00 0.00 0.00 90 1004.4
20260506020507 25 230 3.2 3.2 0.00 0.00 0.00 90 1004.6
20260506020004 25 213 3.2 4.8 0.00 0.00 0.00 90 1004.5
20260506015501 25 147 1.6 3.2 0.00 0.00 0.00 90 1004.2
20260506014958 25 239 3.2 4.8 0.00 0.00 0.00 90 1004.4
20260506014455 25 154 3.2 3.2 0.00 0.00 0.00 90 1004.2
20260506013951 25 192 3.2 4.8 0.00 0.00 0.00 89 1004.3
20260506013450 25 169 3.2 6.4 0.00 0.00 0.00 89 1003.8
20260506012945 26 186 3.2 3.2 0.00 0.00 0.00 89 1004.0
20260506012442 26 172 1.6 1.6 0.00 0.00 0.00 88 1004.0
20260506011939 26 185 3.2 3.2 0.00 0.00 0.00 88 1003.9
20260506011436 26 220 3.2 4.8 0.00 0.00 0.00 88 1003.8
20260506010933 26 198 4.8 4.8 0.00 0.00 0.00 87 1003.5
20260506010432 26 184 3.2 4.8 0.00 0.00 0.00 87 1003.7
20260506005928 26 166 1.6 3.2 0.00 0.00 0.00 86 1003.6
20260506005426 26 183 1.6 1.6 0.00 0.00 0.00 86 1003.4
20260506004921 26 179 8.0 11.3 0.00 0.00 0.00 85 1003.6
20260506004419 26 230 3.2 4.8 0.00 0.00 0.00 85 1003.3
20260506003915 27 207 3.2 4.8 0.00 0.00 0.00 85 1003.3
20260506003411 27 169 1.6 3.2 0.00 0.00 0.00 84 1003.2
20260506002908 27 186 1.6 3.2 0.00 0.00 0.00 84 1003.0
20260506002404 27 152 0.0 0.0 0.00 0.00 0.00 83 1003.3
20260506001859 27 204 3.2 3.2 0.00 0.00 0.00 83 1003.1
20260506001356 27 153 3.2 4.8 0.00 0.00 0.00 82 1003.0
20260506000854 28 143 9.7 12.9 0.00 0.00 0.00 81 1002.8
20260506000354 28 181 6.4 9.7 0.00 0.00 0.00 81 1002.8
20260505235848 28 197 3.2 3.2 0.00 0.00 0.00 80 1003.0
20260505235346 28 165 3.2 4.8 0.00 0.00 0.00 80 1003.0
20260505234842 28 168 4.8 6.4 0.00 0.00 0.00 80 1002.9
20260505234340 28 190 3.2 3.2 0.00 0.00 0.00 80 1003.0
20260505233837 28 206 3.2 4.8 0.00 0.00 0.00 79 1003.0
20260505233335 28 200 1.6 1.6 0.00 0.00 0.00 79 1003.0
20260505232832 28 174 6.4 9.7 0.00 0.00 0.00 78 1002.9
20260505232330 29 149 6.4 11.3 0.00 0.00 0.00 77 1002.8
20260505231826 29 213 8.0 11.3 0.00 0.00 0.00 76 1002.8
20260505231324 29 183 4.8 6.4 0.00 0.00 0.00 76 1003.0
20260505230822 28 216 6.4 6.4 0.00 0.00 0.00 76 1002.7
20260505230319 28 214 8.0 9.7 0.00 0.00 0.00 76 1002.8
20260505225815 28 174 6.4 6.4 0.00 0.00 0.00 75 1002.7
20260505225313 28 190 3.2 4.8 0.00 0.00 0.00 77 1002.7
20260505224808 29 197 6.4 6.4 0.00 0.00 0.00 76 1002.8
20260505224306 29 152 3.2 4.8 0.00 0.00 0.00 76 1003.1
20260505223803 29 193 8.0 9.7 0.00 0.00 0.00 76 1002.9
20260505223300 29 225 6.4 9.7 0.00 0.00 0.00 76 1002.8
20260505222755 28 199 6.4 6.4 0.00 0.00 0.00 76 1002.8
20260505222251 28 190 6.4 9.7 0.00 0.00 0.00 76 1002.7
20260505221749 28 215 9.7 14.5 0.00 0.00 0.00 76 1002.9
20260505221245 28 179 6.4 9.7 0.00 0.00 0.00 76 1003.0
20260505220742 29 233 8.0 9.7 0.00 0.00 0.00 76 1003.0
20260505220239 29 246 6.4 6.4 0.00 0.00 0.00 75 1003.2
20260505215738 29 217 9.7 12.9 0.00 0.00 0.00 75 1003.2
20260505215235 29 233 11.3 14.5 0.00 0.00 0.00 74 1003.2
20260505214733 28 236 6.4 9.7 0.00 0.00 0.00 76 1003.2
20260505214230 28 249 8.0 9.7 0.00 0.00 0.00 75 1003.0
20260505213727 29 202 14.5 16.1 0.00 0.00 0.00 74 1003.4
20260505213224 29 208 6.4 9.7 0.00 0.00 0.00 75 1003.3
20260505212720 28 182 8.0 11.3 0.00 0.00 0.00 75 1003.4
20260505212218 28 221 6.4 6.4 0.00 0.00 0.00 76 1003.5
20260505211715 28 194 9.7 12.9 0.00 0.00 0.00 75 1003.6
20260505211212 28 198 9.7 11.3 0.00 0.00 0.00 76 1003.5
20260505210708 28 255 6.4 6.4 0.00 0.00 0.00 76 1003.5
20260505210205 28 197 12.9 14.5 0.00 0.00 0.00 76 1003.9
20260505205703 28 248 14.5 17.7 0.00 0.00 0.00 75 1004.0
20260505205201 28 238 9.7 9.7 0.00 0.00 0.00 77 1004.3
20260505204657 28 109 8.0 12.9 0.00 0.00 0.00 77 1004.1
20260505204155 28 249 4.8 6.4 0.00 0.00 0.00 78 1004.2
20260505203652 28 204 3.2 3.2 0.00 0.00 0.00 79 1004.2
20260505203148 28 147 9.7 14.5 0.00 0.00 0.00 79 1004.4
20260505202644 28 228 12.9 16.1 0.00 0.00 0.00 78 1004.5
20260505202140 28 345 3.2 3.2 0.00 0.00 0.00 80 1004.3
20260505201637 28 152 4.8 9.7 0.00 0.00 0.00 78 1004.6
20260505201135 28 224 12.9 16.1 0.00 0.00 0.00 77 1004.4
20260505200633 28 262 9.7 12.9 0.00 0.00 0.00 79 1004.4
20260505200130 27 203 8.0 11.3 0.00 0.00 0.00 80 1004.8
20260505195626 27 232 9.7 16.1 0.00 0.00 0.00 80 1004.7
20260505195123 27 211 9.7 11.3 0.00 0.00 0.00 80 1004.8
20260505194620 27 220 9.7 12.9 0.00 0.00 0.00 82 1004.9
20260505194116 27 195 8.0 11.3 0.00 0.00 0.00 81 1004.9
20260505193613 27 197 6.4 6.4 0.00 0.00 0.00 81 1005.0
20260505193110 27 198 4.8 6.4 0.00 0.00 0.00 82 1005.3
20260505192609 27 190 9.7 14.5 0.00 0.00 0.00 82 1005.3
20260505192106 27 227 6.4 6.4 0.00 0.00 0.00 82 1005.3
20260505191604 27 235 6.4 11.3 0.00 0.00 0.00 83 1005.2
20260505191102 27 195 9.7 12.9 0.00 0.00 0.00 82 1005.7
20260505190556 26 200 6.4 9.7 0.00 0.00 0.00 84 1005.6
20260505190052 26 220 8.0 9.7 0.00 0.00 0.00 84 1005.7